Tracking 30995 objects as of 5-Jul-2025
HD Live streaming from Space Station
objects crossing your sky now

STARLINK-30136

Track STARLINK-30136 now!
10-day predictions
STARLINK-30136 is classified as:


NORAD ID: 56844
Int'l Code: 2023-079X
Perigee: 565.8 km
Apogee: 566.8 km
Inclination: 43.0 °
Period: 95.8 minutes
Semi major axis: 6937 km
RCS: Unknown
Launch date: June 4, 2023
Source: United States (US)
Launch site: AIR FORCE EASTERN TEST RANGE (AFETR)
Your satellite tracking list
Your tracking list is empty




NASA's NSSDC Master Catalog

Two Line Element Set (TLE):
1 56844U 23079X   25186.54768674  .00001614  00000-0  13461-3 0  9997
2 56844  43.0047  10.5263 0000711 289.9550  70.1215 15.02518555115708
Source of the keplerian elements: AFSPC